Preview of NWS' New Version of Forecast
This preview is not operational and should not be used for support decisions.
Latest weather observations around

Birmingham, Birmingham International Airport (KBHM)

Using International System of Units (Switch to English Units)
Date/ Time (CDT) Wind (kph) Vis. (km) Weather Sky Cond. Temp (°C) Rel. Humidity Wind Chill (°C) Heat Index (°C) Pressure Precip. (cm)
Air Dwpt 6 hour Altimeter (hPa) Sea level (hPa) 1 hr 3 hr 6 hr
Max Min
Oct 15 09:53 S 11 16.09 Partly Cloudy SCT042 23 18     74%   24 1021.3 1020.4      
Oct 15 09:39 S 9 16.09 Mostly Cloudy SCT012 BKN043 23 18     74%   24 1021.3        
Oct 15 08:53 SSW 9 16.09 Mostly Cloudy BKN011 BKN038 23 17     71%   23 1021 1020.2      
Oct 15 08:48 S 9 16.09 Cloudy BKN011 OVC038 23 17     69%   23 1021        
Oct 15 07:53 SE 5 16.09 Mostly Clear FEW140 21 16     73%     1020.7 1019.8      
Oct 15 06:53 Calm 16.09 Mostly Clear FEW140 20 16     76%     1020 1019.3      
Oct 15 05:53 Calm 16.09 Clear CLR 21 15     70%     1019.7 1018.7      
Oct 15 04:53 Calm 16.09 Mostly Clear FEW250 21 15     68%     1019 1018.1      
Oct 15 03:53 S 8 16.09 Mostly Clear FEW140 22 14     61%   22 1018.6 1017.6      
Oct 15 02:53 SSE 9 16.09 Clear CLR 22 14     59%   22 1018.6 1017.7      
Oct 15 01:53 SSE 11 16.09 Mostly Clear FEW140 23 14     56%   23 1019.3 1018.3      
Oct 15 00:53 SSE 11 16.09 Partly Cloudy SCT140 24 14     55%   24 1019 1018      
Oct 14 23:53 8 16.09 Clear   24 14     55%   24 1019 1018      
Oct 14 22:53 9 16.09 Mostly Clear FEW120 24 15     57%   24 1019 1018.2      
Oct 14 21:53 SSE 9 16.09 Mostly Cloudy FEW120 BKN140 24 15     57%   24 1019.3 1018.4      
Oct 14 20:53 8 16.09 Partly Cloudy SCT120 24 15     56%   24 1018.6 1017.9      
Oct 14 19:53 SSE 9 16.09 Partly Cloudy SCT120 26 15     52%   26 1018 1017.1      
Oct 14 18:53 SSE 5 16.09 Mostly Cloudy FEW120 BKN140 26 13     45%   26 1017.6 1016.8      
Oct 14 17:53 SSE 11 16.09 Mostly Cloudy BKN130 28 13     40%   27 1016.9 1016.1      
Oct 14 16:53 SSE 13 16.09 Mostly Cloudy BKN120 28 13     38%   28 1016.6 1015.8      
Oct 14 15:53 S 18 16.09 Mostly Clear FEW120 29 12     35%   29 1016.6 1015.8      
Oct 14 14:53 S 18 16.09 Partly Cloudy SCT110 29 11     32%   28 1016.9 1016.1      
Oct 14 13:53 SSW 15 16.09 Mostly Clear FEW100 29 11     32%   28 1016.9 1016.1      
Oct 14 12:53 S 21 16.09 Partly Cloudy SCT100 29        %     1017.3 1016.5      
Oct 14 11:53 S 15 16.09 Mostly Cloudy BKN110 27 14     45%   27 1018.3 1017.5      
Oct 14 10:53 SSE 9 16.09 Mostly Cloudy SCT100 BKN120 24 14     55%   24 1018.6 1018      
Oct 14 09:53 SSE 5 16.09 Cloudy BKN100 OVC120 21 14     63%     1019.3 1018.7      
Oct 14 08:53 S 9 16.09 Cloudy OVC100 21 14     65%     1018.6 1018.1      
Oct 14 07:53 Calm 16.09 Mostly Cloudy BKN100 18 14     76%     1018 1017.3      
Oct 14 06:53 ESE 8 16.09 Cloudy BKN095 OVC110 17 13     80%     1017.3 1016.8      
Oct 14 05:53 Calm 16.09 Mostly Clear FEW100 17 13     78%     1017.6 1016.8      
Oct 14 04:53 ESE 9 16.09 Clear CLR 18 13     75%     1016.6 1015.8      
Oct 14 03:53 ENE 8 16.09 Clear CLR 17 13     78%     1016.3 1015.5      
Oct 14 02:53 5 16.09 Mostly Clear FEW110 17 13     78%     1016.3 1015.5      
Oct 14 01:53 E 8 16.09 Partly Cloudy SCT150 17 13     78%     1016.3 1015.6      
Oct 14 00:53 E 13 16.09 Clear CLR 18 13     73%     1015.9 1015.2      
Oct 13 23:53 Calm 16.09 Clear CLR 18 13     73%     1016.6 1015.8      
Oct 13 22:53 E 5 16.09 Mostly Cloudy BKN150 19 13     68%     1016.9 1016.1      
Oct 13 21:53 Calm 16.09 Mostly Cloudy BKN150 19 13     70%     1016.6 1016.2      
Oct 13 20:53 E 8 16.09 Clear CLR 18 14     81%     1015.9 1015.3      
Oct 13 19:53 E 5 16.09 Clear CLR 19 14     73%     1016.3 1015.5      
Oct 13 18:53 N 5 16.09 Clear CLR 19 14     71%     1015.6 1015      
Oct 13 17:53 N 9 16.09 Mostly Clear FEW060 FEW250 22 13     57%   21 1014.9 1014.2      
Oct 13 16:53 NW 8 16.09 Mostly Clear FEW045 23 12     50%   23 1014.6 1013.9      
Oct 13 15:53 W 11 16.09 Mostly Clear FEW043 23 12     51%   22 1014.9 1014.4      
Oct 13 14:53 Calm 16.09 Partly Cloudy SCT042 23 12     50%   23 1014.9 1014.4      
Oct 13 13:53 Calm 16.09 Partly Cloudy SCT050 SCT250 23 12     50%   23 1015.6 1015      
Oct 13 12:53 W 8 16.09 Mostly Clear FEW050 FEW250 22 11     49%   22 1016.6 1015.9      
Oct 13 11:53 Calm 16.09 Mostly Clear FEW050 FEW250 22 11     51%   21 1016.9 1016.5      
Oct 13 10:53 8 16.09 Mostly Clear FEW050 FEW250 20 11     55%     1017.6 1017.1      
Oct 13 09:53 NNE 11 16.09 Mostly Clear FEW050 FEW250 19 10     56%     1017.3 1016.9      
Oct 13 08:53 N 11 16.09 Mostly Clear FEW050 18 10     60%     1017.3 1016.8      
Oct 13 04:53 Calm 16.09 Cloudy OVC055 16 12     75%     1015.2 1014.6      
Oct 12 23:53 Calm 16.09 Mostly Cloudy BKN080 14 11     81%     1014.6 1014      
Oct 12 20:53 E 5 16.09 Partly Cloudy SCT120 16 11     72%     1014.6 1014.3      
Oct 12 18:53 N 8 16.09 Clear CLR 18 9     56%     1013.9 1013.7      
Oct 12 16:53 NW 11 16.09 Mostly Clear FEW250 23 7     35%   22 1013.6 1013.1      
Oct 12 10:53 5 16.09 Mostly Cloudy BKN250 17 7     52%     1017.3 1016.9      
Oct 12 07:53 NE 5 16.09 Mostly Clear FEW250 11 8     83%     1016.9 1016.7      
Oct 12 06:53 N 9 16.09 Mostly Clear FEW250 9 8     93% 7   1016.9 1016.7      
Oct 12 00:53 N 5 16.09 Clear CLR 13 10     80%     1016.9 1016.4      
Oct 11 22:53 N 13 16.09 Clear   14 10     77%     1016.6 1016.2      
Oct 11 16:53 NW 22 16.09 Clear CLR 24 11     45%   24 1013.6 1012.7      
Oct 11 11:17 NW 17 16.09 Partly Cloudy SCT026 23 16     62%   23 1014.2        
Oct 11 10:53 WNW 17 16.09 Mostly Cloudy BKN024 22 16     66%   22 1014.2 1013.3      
Oct 11 09:53 NW 21 16.09 Cloudy SCT019 OVC027 21 17     78%       1012.6      
Oct 11 07:56 NW 17 16.09 Cloudy SCT012 OVC020 20 18     90%              
Oct 11 07:53 NW 13 16.09 Cloudy BKN012 OVC020 20 18     90%     1011.5 1010.9      
Oct 11 06:53 WNW 21 16.09 Cloudy BKN010 OVC015 21 19     90%     1010.8 1009.9     0
Oct 11 04:53 NW 17 16.09 Cloudy BKN013 OVC019 22 21     93%   23 1008.8 1007.9      
Oct 11 04:15 WNW 15 16.09 Cloudy BKN010 OVC013 22 21     93%   23 1008.1        
Oct 11 03:53 NW 15 16.09 Cloudy BKN009 BKN015 OVC046 23 22     94%   24 1008.1 1007.1 0 0  
Oct 11 02:21   4.83 Rain and Fog/Mist BKN008 BKN024 OVC029 23 22     94%   24 1007.5   0    
Oct 11 00:35 NW 15 16.09 Light Rain SCT007 BKN012 OVC036 23 22     94%   24 1007.1   0    
Oct 11 00:00 NW 13 16.09 Cloudy BKN007 BKN011 OVC027 23 22     94%   24 1007.5        
Oct 10 23:26 NNW 13 16.09 Cloudy SCT008 OVC040 23 22     94%   24 1007.5        
Oct 10 16:53 NNW 17 9.66 Light Rain and Fog/Mist BKN008 BKN015 OVC055 24 23     94%   25 1007.1 1006.1 0    
Notice The following observation data may not be complete
Oct 10 16:20   11.27 Light Rain BKN009 BKN046 OVC070          %         0    
Notice The following observation data may not be complete
Oct 10 13:12   12.87 Light Rain SCT021 OVC060          %         0    
Notice The following observation data may not be complete
Oct 10 07:36   16.09 Mostly Cloudy FEW011 SCT018 BKN140          %              
Oct 10 03:16 E 13 16.09 Mostly Cloudy FEW009 BKN021 BKN028 23 22     91%   24 1011.5        
Oct 10 01:27 ESE 13 8.05 Light Rain and Fog/Mist FEW018 BKN024 OVC050 23 22     91%   24 1012.5   0    
Oct 09 23:53 ESE 13 12.87 Clear   24 21     82%   24 1012.9 1012      
Oct 09 20:53 ESE 22 16.09 Mostly Cloudy FEW029 BKN055 BKN120 26 20     71%   26 1013.2 1012.4      
Oct 09 16:53 ENE 17 16.09 Mostly Cloudy FEW043 BKN080 28 19     60%   29 1013.9 1013      
Oct 09 12:53   16.09 Cloudy FEW033 BKN050 OVC060 28 20     61%   30 1016.6 1015.6      
Oct 09 11:53 E 18 16.09 Mostly Cloudy SCT029 BKN043 27 19     62%   29 1017.6 1016.5      
Oct 09 07:00 E 9 16.09 Mostly Clear FEW024 23 20     82%   24 1018        
Oct 08 22:53 E 8 16.09 Partly Cloudy FEW065 SCT085 26 19     67%   26 1019 1017.9      
Oct 08 12:53 ESE 15 16.09 Mostly Clear FEW037 FEW049 30 18     50%   31 1020.3 1019.5      
Oct 08 11:53 ESE 13 16.09 Mostly Clear FEW037 29 19     57%   30 1021.3 1020.3      
Oct 08 08:53 ESE 15 16.09 Mostly Cloudy BKN018 24 20     79%   24 1021.7 1020.7      
Oct 08 08:48 ESE 11 16.09 Mostly Cloudy BKN018 24 20     78%   25 1021.3        
Oct 08 04:53 8 16.09 Clear CLR 23 18     74%   24 1020.3 1019.3      
Oct 08 03:53 ESE 8 16.09 Clear CLR 24 18     71%   24 1020 1019.1      
Oct 07 16:53 SE 15 16.09 Mostly Cloudy FEW060 BKN250 30 17     46%   30 1019.3 1018.6      
Oct 07 12:53 9 16.09 Partly Cloudy SCT048 31 18     47%   32 1021.3 1020.5      
Oct 07 10:53 ESE 9 16.09 Mostly Clear FEW080 29 20     57%   31 1022.7 1021.7      
Oct 07 08:53 Calm 16.09 Partly Cloudy SCT060 26 20     69%   27 1022.7 1021.7      
Oct 07 07:53 Calm 16.09 Mostly Clear FEW060 24 21     82%   24 1022 1021.1      
Oct 07 06:53 Calm 14.48 Mostly Clear FEW250 21 19     90%     1021.3 1020.4      
Oct 07 04:53 Calm 14.48 Clear CLR 21 20     93%     1020.3 1019.3      
Oct 06 18:53 Calm 16.09 Clear CLR 27 21     67%   29 1019 1018.2      
Oct 06 14:53 5 16.09 Partly Cloudy FEW055 SCT100 32 20     49%   34 1019.3 1018.4      
Oct 06 12:53 5 16.09 Mostly Cloudy BKN050 BKN080 30 19     53%   32 1020.7 1019.5      
Oct 06 08:53 Calm 16.09 Clear CLR 27 21     69%   28 1021.3 1020.3      
Oct 06 06:53 Calm 14.48 Mostly Clear FEW050 22 21     93%   22 1020.3 1019.6      
Oct 06 04:53 Calm 16.09 Mostly Cloudy BKN070 22 21     91%   23 1019.3 1018.3      
Oct 06 03:53 Calm 16.09 Mostly Clear FEW060 22 20     90%   22 1019 1017.9      
Oct 06 02:53 Calm 16.09 Clear CLR 22 21     91%   23 1018.6 1017.7      
Oct 05 22:53 Calm 16.09 Clear CLR 24 22     88%   25 1019.3 1018.4      
Oct 05 20:53 Calm 16.09 Mostly Clear FEW060 26 22     82%   26 1019.3 1018.4      
Oct 05 19:53 Calm 16.09 Mostly Clear FEW050 FEW095 26 23     85%   26 1019 1018.2      
Oct 05 16:53 5 16.09 Mostly Cloudy BKN049 31 21     54%   34 1018 1016.9      
Oct 05 13:53 Calm 16.09 Partly Cloudy SCT048 32 20     49%   34 1018.6 1017.7      
Oct 05 11:53 Calm 16.09 Partly Cloudy SCT042 31 19     51%   32 1020.3 1019.4      
Oct 05 07:53 Calm 16.09 Clear CLR 23 21     87%   23 1021 1020.3      
Oct 05 06:53 Calm 12.87 Clear CLR 21 20     93%     1021 1020      
Oct 05 05:53 Calm 16.09 Partly Cloudy SCT250 21 19     90%     1020.3 1019.5      
Oct 05 04:53 Calm 16.09 Partly Cloudy SCT250 21 20     93%     1020 1018.9      
Oct 05 03:53 Calm 16.09 Partly Cloudy SCT250 22 20     90%   22 1019.3 1018.5      
Oct 05 02:53 Calm 16.09 Clear CLR 22 19     87%   22 1019.3 1018.4      
Oct 05 01:53 Calm 16.09 Clear CLR 22 20     87%   23 1019.3 1018.3      
Oct 05 00:53 Calm 16.09 Clear CLR 23 21     87%   23 1019.3 1018.2      
Oct 04 23:53 Calm 16.09 Clear CLR 23 21     87%   23 1019.3 1018.5      
Oct 04 22:53 Calm 16.09 Clear CLR 24 21     82%   24 1020 1019      
Oct 04 21:53 Calm 16.09 Clear CLR 24 21     82%   25 1019.7 1018.7      
Oct 04 20:53 Calm 16.09 Clear CLR 25 21     79%   26 1019.3 1018.4      
Oct 04 19:53 NE 5 16.09 Clear CLR 26 21     72%   27 1019 1018.2      
Oct 04 18:53 Calm 16.09 Mostly Clear FEW050 28 20     63%   29 1018.6 1017.8      
Oct 04 17:53 E 8 16.09 Mostly Clear FEW050 31 19     50%   32 1018.6 1017.8      
Oct 04 16:53 Calm 16.09 Mostly Clear FEW050 32 19     47%   33 1018.6 1017.6      
Oct 04 15:53 8 16.09 Mostly Clear FEW045 FEW060 32 18     44%   33 1019 1018.1      
Oct 04 14:53 Calm 16.09 Partly Cloudy FEW048 SCT060 31 18     47%   32 1019.7 1018.6      
Oct 04 13:53 NNW 8 16.09 Mostly Clear FEW047 FEW065 32 19     45%   34 1020.3 1019.3      
Oct 04 12:53 N 15 16.09 Clear CLR 32 19     48%   33 1021 1020      
Oct 04 11:53 NNW 11 16.09 Mostly Clear FEW039 31 20     53%   33 1022 1020.9      
Oct 04 10:53 5 16.09 Clear CLR 29 20     57%   31 1022.4 1021.3      
Oct 04 09:53 Calm 16.09 Clear CLR 29 21     61%   31 1022.7 1021.6      
Oct 04 08:53 Calm 16.09 Clear CLR 27 20     67%   28 1022.4 1021.5      
Oct 04 07:53 Calm 16.09 Mostly Clear FEW012 23 20     82%   24 1022 1021      
Oct 04 06:53 Calm 16.09 Clear CLR 20 19     93%     1021.3 1020.4      
Oct 04 05:53 Calm 16.09 Clear CLR 21 19     93%     1020.7 1019.9      
Oct 04 04:53 Calm 16.09 Clear CLR 21 19     93%     1020.3 1019.4      
Oct 04 03:53 Calm 16.09 Clear CLR 21 19     90%     1019.7 1018.8      
Oct 04 02:53 Calm 16.09 Clear CLR 21 19     90%     1019.7 1018.6      
Oct 04 01:53 Calm 16.09 Clear CLR 22 19     84%   23 1019.7 1018.8      
Oct 04 00:53 Calm 16.09 Clear CLR 23 19     81%   23 1019.7 1018.7      
Oct 03 23:53 Calm 16.09 Clear CLR 23 20     84%   23 1019.7 1018.7      
Oct 03 22:53 NE 5 16.09 Clear CLR 23 20     84%   23 1020 1019      
Oct 03 21:53 Calm 16.09 Clear CLR 24 21     82%   24 1020 1019      
Oct 03 20:53 Calm 16.09 Clear   25 21     77%   26 1019.7 1018.9      
Sep 25 09:43 SSE 13 16.09 Mostly Cloudy SCT012 BKN050 BKN100 26 22     82%   26 1021        
Sep 25 09:33 S 15 16.09 Mostly Cloudy BKN011 BKN050 BKN100 26 22     82%   26 1021        
Sep 25 09:17 11 16.09 Cloudy BKN009 OVC013 25 23     88%   26 1021        
Sep 25 08:53 SSE 13 16.09 Mostly Cloudy BKN010 24 22     88%   25 1021 1020.2      
Sep 25 08:10 SE 13 16.09 Mostly Cloudy BKN011 BKN070 24 22     90%   25 1020.7        
Sep 25 07:53 ESE 9 16.09 Partly Cloudy FEW055 SCT140 24 22     88%   25 1020.7 1019.9      
May 13 22:53 Calm 16.09 Clear CLR 23 18     73%   23 1019 1018      
May 13 16:53 NNW 11 16.09 Mostly Clear FEW065 33 14     33%   32 1018 1017      
May 13 13:53 9 16.09 Mostly Clear FEW065 32 16     38%   32 1020 1019.2      
May 12 16:53 S 11 16.09 Mostly Clear FEW250 32 12     29%   30 1019.3 1018.5      
May 12 08:53 Calm 16.09 Clear CLR 26 14     50%   26 1022.7 1021.8      
May 12 03:53 Calm 16.09 Clear CLR 18 15     84%     1020.3 1019.4      
May 11 20:53 SSE 5 16.09 Clear CLR 26 14     50%   26 1019.7 1018.6      
Jun 12 03:53 SSE 8 16.09 Mostly Clear FEW040 23 22     91%   24 1021 1020.2      
Jun 11 23:53 SSE 8 16.09 Mostly Clear FEW050 26 21     74%   28 1021 1019.9      
Jun 11 07:53 SE 15 16.09 Partly Cloudy SCT065 SCT250 24 19     74%   24 1021.7 1020.7      
Jun 10 13:53 ESE 15 16.09 Mostly Cloudy SCT060 BKN075 30 14     39%   30 1019 1018      
Jun 10 11:53 5 16.09 Partly Cloudy SCT070 28        %     1019.7 1018.9      
Jun 08 22:53 Calm 16.09 Clear CLR 20 15     73%     1014.2 1013.4      
Jun 08 20:53 N 11 16.09 Mostly Clear FEW250 21 14     66%     1012.9 1012.2      
Jun 07 18:53   16.09 Mostly Clear FEW065 FEW250 26 12     42%   26 1011.5 1010.7      
Jun 06 03:11 NE 8 16.09 Mostly Cloudy FEW007 FEW022 BKN028 22 21     96%   22 1009.5        
Jun 06 02:53 NNE 8 16.09 Partly Cloudy SCT120 22 21     96%   22 1009.5 1008.5      
Jun 05 19:53 Calm 16.09 Light Rain FEW020 SCT120 OVC250 22 21     93%   23 1009.8 1009.1 0    
Jun 05 14:53 Calm 16.09 Cloudy BKN065 BKN100 OVC250 24 21     84%   25 1010.5 1009.8 0